West Palm Beach, FL

3:02 PM EDT on July 26, 2017 (GMT -0400)
Palm Beach International

Weather History for KPBI - July, 2014

Change the Weather History Date:

Tuesday, July 29, 2014

  Actual Average Record
Temperature  
Mean Temperature 87 °F 83 °F  
Max Temperature 94 °F 90 °F 96 °F (1950)
Min Temperature 79 °F 76 °F 68 °F (1921)
Degree Days  
Heating Degree Days 0 0  
Month to date heating degree days 0 0  
Since 1 June heating degree days 0 0  
Since 1 July heating degree days 0 0  
Cooling Degree Days 22 18  
Month to date cooling degree days 528 511  
Year to date cooling degree days 2368 2110  
Since 1 June cooling degree days 1016 1001  
Growing Degree Days 36 (Base 50)    
Moisture  
Dew Point 75 °F    
Average Humidity 69    
Maximum Humidity 85    
Minimum Humidity 52    
Precipitation  
Precipitation 0.01 in 0.17 in 2.05 in (1992)
Month to date precipitation 7.09 5.39  
Year to date precipitation 32.79 32.40  
Snow  
Snow 0.00 in - - ()
Month to date snowfall 0.0  
Since 1 June snowfall 0.0  
Since 1 July snowfall 0.0  
Snow Depth 0.00 in    
Sea Level Pressure  
Sea Level Pressure 29.97 in    
Wind  
Wind Speed 7 mph (WSW)    
Max Wind Speed 20 mph    
Max Gust Speed 24 mph    
Visibility 10 miles    
Events Rain , Thunderstorm    
T = Trace of Precipitation, MM = Missing Value Source: NWS Daily Summary

Daily Weather History Graph

Daily Weather History Graph

Search for Another Location

Airport or City:

Trip Planner

Search our weather history database for the weather conditions in past years. The results will help you decide how hot, cold, wet, or windy it might be!

Date:

Astronomy

Jul. 29, 2014 Rise Set
Actual Time 6:43 AM EDT 8:09 PM EDT
Civil Twilight 6:18 AM EDT 8:34 PM EDT
Nautical Twilight 5:48 AM EDT 9:04 PM EDT
Astronomical Twilight 5:17 AM EDT 9:35 PM EDT
Moon 8:59 AM EDT (7/29) 9:42 PM EDT (7/29)
Length of Visible Light 14h 16m
Length of Day
13h 26m
Waxing Crescent, 7% of the Moon is Illuminated
Jul 29
Waxing Crescent
Aug 3
First Quarter
Aug 10
Full
Aug 17
Last Quarter
Aug 25
New

Hourly Weather History & Observations

Time (EDT) Temp. Heat Index Dew Point Humidity Pressure Visibility Wind Dir Wind Speed Gust Speed Precip Events Conditions
12:53 AM 82.9 °F 90.2 °F 75.0 °F 77% 30.01 in 10.0 mi WSW 8.1 mph - N/A   Mostly Cloudy
1:53 AM 81.0 °F 86.7 °F 75.0 °F 82% 29.99 in 10.0 mi WSW 5.8 mph - N/A   Mostly Cloudy
2:53 AM 81.0 °F 87.3 °F 75.9 °F 85% 29.98 in 10.0 mi WSW 6.9 mph - N/A   Mostly Cloudy
3:53 AM 80.1 °F 85.4 °F 75.9 °F 87% 29.96 in 10.0 mi WSW 8.1 mph - N/A   Mostly Cloudy
4:53 AM 80.1 °F 85.1 °F 75.0 °F 85% 29.96 in 10.0 mi West 5.8 mph - N/A   Scattered Clouds
5:53 AM 80.1 °F 85.4 °F 75.9 °F 87% 29.96 in 10.0 mi WSW 5.8 mph - N/A   Scattered Clouds
6:53 AM 80.1 °F 85.4 °F 75.9 °F 87% 29.97 in 10.0 mi SW 6.9 mph - N/A   Scattered Clouds
7:53 AM 81.0 °F 87.3 °F 75.9 °F 85% 29.99 in 10.0 mi WSW 5.8 mph - N/A   Scattered Clouds
8:53 AM 84.0 °F 92.6 °F 75.9 °F 76% 29.99 in 10.0 mi WSW 9.2 mph - N/A   Scattered Clouds
9:53 AM 87.1 °F 97.3 °F 75.9 °F 69% 30.00 in 10.0 mi WSW 6.9 mph - N/A   Mostly Cloudy
10:53 AM 88.0 °F 97.5 °F 75.0 °F 65% 30.01 in 10.0 mi West 10.4 mph - N/A   Mostly Cloudy
11:53 AM 90.0 °F 97.9 °F 73.0 °F 57% 30.00 in 10.0 mi West 12.7 mph - N/A   Scattered Clouds
12:53 PM 91.0 °F 100.4 °F 73.9 °F 57% 29.99 in 10.0 mi SW 9.2 mph - N/A   Mostly Cloudy
1:53 PM 93.0 °F 101.9 °F 73.0 °F 52% 29.97 in 10.0 mi West 10.4 mph - N/A   Mostly Cloudy
2:47 PM 84.2 °F 92.3 °F 75.2 °F 74% 29.96 in 10.0 mi NNW 4.6 mph - 0.01 in Rain , Thunderstorm Light Thunderstorms and Rain
2:53 PM 84.9 °F 94.1 °F 75.9 °F 74% 29.95 in 10.0 mi NNE 5.8 mph - 0.01 in Thunderstorm Thunderstorm
3:53 PM 82.9 °F 88.8 °F 73.0 °F 72% 29.96 in 10.0 mi NE 4.6 mph - 0.00 in Thunderstorm Thunderstorm
4:30 PM 84.9 °F 93.3 °F 75.0 °F 72% 29.95 in 10.0 mi ESE 5.8 mph - N/A   Mostly Cloudy
4:53 PM 86.0 °F 95.1 °F 75.0 °F 70% 29.95 in 10.0 mi SE 3.5 mph - N/A Thunderstorm Thunderstorm
5:36 PM 84.9 °F 94.1 °F 75.9 °F 74% 29.96 in 10.0 mi NW 3.5 mph - 0.00 in   Mostly Cloudy
5:53 PM 84.9 °F 94.1 °F 75.9 °F 74% 29.96 in 10.0 mi Calm Calm - 0.00 in   Mostly Cloudy
6:53 PM 86.0 °F 93.8 °F 73.9 °F 67% 29.95 in 10.0 mi West 4.6 mph - N/A   Mostly Cloudy
7:53 PM 84.0 °F 89.6 °F 72.0 °F 67% 29.96 in 10.0 mi SW 9.2 mph - N/A   Mostly Cloudy
8:53 PM 82.0 °F 87.9 °F 73.9 °F 76% 29.97 in 10.0 mi SW 5.8 mph - N/A   Mostly Cloudy
9:53 PM 82.9 °F 90.2 °F 75.0 °F 77% 29.97 in 10.0 mi SSW 4.6 mph - N/A   Mostly Cloudy
10:53 PM 82.0 °F 87.9 °F 73.9 °F 76% 29.97 in 10.0 mi South 9.2 mph - N/A   Mostly Cloudy
11:53 PM 81.0 °F 86.2 °F 73.9 °F 79% 29.98 in 10.0 mi SW 4.6 mph - N/A   Scattered Clouds